GFSSW_prec_cloud_021.txt.gz
Cloud_Cover
42 84 5 5 48 43 27 5 5 0 2 6 5 5 63 36 18 71 44 4 0 0 1 2 5 5 5 4 0 0 0 0 0 0 0 0 0 0 0 0 56 14 5 0 0
4 13 5 5 7 12 9 3 0 0 0 0 0 0 2 12 11 5 5 0 0 0 0 0 1 0 1 0 0 0 0 0 0 0 0 0 0 0 0 0 0 3 4 0 0
2 5 43 49 18 2 0 0 0 0 0 0 2 0 0 0 0 4 4 5 5 4 0 0 0 0 0 0 0 0 0 0 0 0 0 0 0 0 0 2 0 0 0 0 0
5 5 30 60 100 51 6 5 5 5 5 5 5 2 0 0 3 5 38 16 7 5 0 0 0 0 0 0 0 0 0 0 0 0 0 0 0 0 0 4 0 0 0 0 0
5 23 77 74 74 68 25 5 5 5 5 5 5 5 5 5 5 83 84 100 96 66 46 5 2 0 0 1 0 5 4 5 5 0 0 5 0 2 0 0 5 2 0 0 0
5 5 6 68 41 64 53 5 5 5 70 59 44 52 53 6 7 33 90 100 100 100 52 68 97 4 6 5 8 25 35 9 5 0 0 0 0 5 5 21 23 5 0 0 0
5 10 33 5 11 77 69 72 5 47 42 99 100 89 100 100 100 100 80 7 12 10 5 5 33 100 100 100 100 84 81 63 5 5 5 5 4 0 0 5 5 3 5 1 0
100 100 100 100 98 14 5 5 12 64 27 5 5 22 66 32 29 42 39 5 5 3 5 5 9 75 100 100 100 100 13 96 100 5 5 32 84 83 6 0 53 5 4 1 5
100 100 100 100 7 6 5 5 5 4 5 7 5 5 41 83 5 5 5 5 5 4 5 5 3 14 34 62 100 100 97 98 82 99 85 46 48 96 99 25 1 0 0 4 5
100 96 96 100 96 82 26 6 6 5 4 5 5 5 5 5 5 5 15 5 5 5 5 5 5 5 5 5 10 51 65 84 100 100 100 100 100 100 18 98 98 27 2 0 0
100 100 76 94 100 100 60 68 58 34 57 14 24 5 5 6 5 10 21 5 5 5 5 5 5 5 4 5 5 60 85 97 71 5 6 99 100 100 100 100 82 100 100 100 84
97 100 100 100 100 50 51 58 61 17 33 17 6 9 64 30 43 13 23 8 16 5 5 5 5 5 5 5 83 62 45 48 53 12 30 100 100 100 100 100 100 100 100 100 100
100 100 100 100 100 100 100 100 97 32 44 88 91 44 10 16 10 65 56 54 68 68 21 6 5 5 5 5 5 30 6 53 9 44 71 51 41 100 100 100 100 100 100 100 100
100 98 98 60 63 86 76 96 98 85 20 60 46 9 5 6 50 79 100 81 64 78 63 36 6 5 5 5 5 14 36 33 8 5 3 5 71 100 100 100 100 100 100 100 100
100 100 100 93 5 94 70 92 29 76 51 18 97 91 93 100 86 34 37 6 38 10 34 98 98 81 23 9 5 41 6 5 6 86 99 74 4 99 13 20 93 60 5 73 96
100 100 100 100 74 95 100 98 99 84 90 19 5 5 7 71 99 100 100 97 93 94 68 70 41 16 46 18 27 20 26 8 10 59 21 50 17 100 77 5 5 28 94 48 23
100 100 100 100 91 100 100 100 100 100 46 36 54 5 5 16 44 87 99 77 100 76 27 54 75 71 73 85 86 89 69 95 28 26 49 58 37 95 43 7 14 7 4 14 74
100 100 100 100 100 100 100 100 100 56 83 96 81 6 52 95 48 65 28 52 9 92 73 67 13 34 19 5 7 7 81 48 37 6 8 18 11 10 7 93 97 54 21 7 16
100 100 100 100 100 100 100 100 100 100 99 100 90 99 88 96 98 100 87 77 87 56 100 95 50 45 9 7 18 13 66 40 72 78 33 5 38 100 100 100 100 100 99 96 100
100 100 100 100 100 100 100 100 100 99 100 100 82 70 99 100 90 94 95 75 100 84 94 72 89 75 47 54 100 100 84 95 100 100 100 100 100 100 100 100 100 100 84 24 5
100 100 100 100 100 100 100 100 99 97 98 100 93 97 92 100 94 63 51 17 46 64 100 100 84 76 36 93 100 97 9 26 84 100 100 98 6 80 100 100 60 60 12 79 87
100 100 98 100 100 100 100 100 100 100 100 74 54 100 97 100 96 87 37 45 42 57 78 76 100 100 100 100 100 100 100 76 98 100 100 96 19 100 48 15 73 6 5 5 7
100 100 100 100 100 100 100 100 100 98 100 100 100 100 100 100 100 100 100 62 76 61 92 100 100 100 92 98 100 100 100 100 100 100 80 100 99 100 100 100 100 35 1 0 0
100 100 100 100 100 100 100 100 98 98 85 93 100 100 100 100 99 77 100 100 100 98 100 100 100 80 70 100 100 100 100 100 100 100 100 100 100 100 100 99 34 5 4 0 0
100 100 100 100 100 100 100 75 96 82 100 99 100 100 100 100 100 100 100 100 100 100 100 96 100 100 100 100 100 100 100 100 100 100 100 100 100 100 100 44 14 1 0 1 5
100 100 100 100 100 100 100 100 100 100 100 100 97 100 100 100 100 100 100 100 100 100 100 100 100 100 100 100 100 100 100 100 100 100 100 100 100 87 0 0 0 0 0 5 5
100 100 100 100 100 100 100 100 100 100 100 100 100 100 100 100 100 100 100 100 100 100 100 100 100 100 100 100 100 82 100 100 100 100 100 33 0 1 0 0 0 1 2 5 5

GFSSW_prec_cloud_024.txt.gz
Cloud_Cover
57 90 90 92 100 18 51 78 27 7 23 5 4 5 5 5 5 79 8 51 5 2 0 0 0 1 0 3 0 0 0 0 0 0 0 0 0 0 0 0 0 0 12 2 0
99 49 100 87 45 39 38 100 69 29 5 0 0 0 1 4 5 4 5 5 5 1 2 1 0 0 0 0 0 0 0 0 0 0 0 0 0 0 0 0 0 0 0 0 0
5 29 99 73 32 32 5 5 4 5 5 0 0 0 0 0 0 0 0 0 4 5 5 5 0 0 0 0 0 0 0 0 0 0 0 0 0 5 3 0 0 0 0 0 0
92 14 5 5 5 70 98 87 31 4 0 2 0 0 3 5 1 0 0 5 5 5 5 5 0 0 0 0 0 0 0 0 0 0 0 0 0 0 3 5 0 0 0 0 0
78 75 5 5 5 44 78 100 98 41 5 5 5 6 5 5 5 5 4 5 34 96 95 97 98 43 34 4 0 5 0 0 0 0 0 0 0 0 2 5 5 0 0 0 0
100 53 5 5 6 33 6 99 67 100 96 60 33 76 79 18 26 82 33 77 86 96 100 100 47 50 99 72 84 96 96 96 15 10 5 2 0 0 4 98 5 0 0 0 0
100 85 75 5 13 65 56 80 85 100 100 100 100 100 100 16 36 84 98 100 100 96 62 41 5 5 34 87 100 70 99 100 86 64 36 48 90 5 5 5 2 0 0 3 3
100 100 100 100 100 77 95 79 97 100 100 100 100 100 100 83 12 5 5 5 25 66 9 5 4 0 5 5 31 72 100 100 100 68 13 14 90 100 20 4 19 0 0 3 1
100 100 100 80 95 100 100 100 66 5 97 61 73 52 95 62 5 5 5 5 5 5 5 8 5 5 5 5 7 5 7 22 89 69 92 90 100 98 99 64 4 1 5 5 3
100 100 100 100 100 100 100 98 63 23 12 5 5 3 36 69 5 5 5 5 5 5 71 71 18 5 4 5 24 7 30 7 30 44 13 22 91 100 89 98 100 100 100 90 55
100 100 100 100 100 100 100 100 52 25 75 5 5 5 5 5 5 5 5 5 5 5 5 5 5 5 5 10 5 5 25 52 52 100 75 100 100 98 60 100 100 100 100 100 100
100 100 100 100 100 100 100 100 100 28 7 5 5 56 5 7 30 47 12 7 5 12 13 5 6 22 24 6 8 5 5 5 5 7 23 56 99 100 46 52 54 66 97 100 100
100 100 100 100 70 92 97 81 58 5 15 46 5 5 66 96 74 73 28 6 30 9 5 5 56 33 26 24 5 5 5 0 0 0 2 5 5 15 4 5 22 75 24 66 70
100 100 100 94 98 95 100 97 72 99 8 13 40 5 45 66 59 16 6 5 5 5 21 32 13 5 15 11 19 66 5 4 4 0 4 4 1 54 2 5 5 60 100 99 75
100 100 100 100 93 100 100 100 99 96 17 62 48 100 100 54 6 5 12 58 74 46 84 99 100 22 33 55 12 34 5 14 71 91 59 42 4 37 74 52 91 32 51 98 82
100 100 100 100 100 100 100 83 100 94 79 5 20 24 79 100 99 82 44 6 5 5 32 6 23 57 6 58 46 17 64 33 5 5 6 48 5 43 77 34 5 7 5 5 2
100 100 100 100 100 100 100 100 99 99 58 100 100 98 93 98 100 100 100 100 93 98 100 67 100 100 92 53 91 100 100 61 45 22 9 14 19 100 97 49 5 6 10 5 5
100 100 100 100 100 100 100 100 100 100 94 76 87 87 99 68 78 84 100 100 100 100 100 100 100 99 91 58 96 82 99 96 22 16 41 79 54 100 80 21 40 5 5 4 56
100 100 100 100 100 100 100 100 100 100 45 18 67 100 100 95 99 68 100 60 100 100 100 100 100 100 94 92 18 100 20 6 22 7 7 5 57 19 5 7 5 3 4 71 53
100 100 100 100 100 100 100 100 100 100 100 100 100 85 100 100 100 63 47 98 100 100 99 100 78 70 86 100 99 96 65 57 43 25 83 5 6 26 76 18 98 31 80 7 5
100 100 100 100 100 100 100 100 100 100 100 100 100 100 95 99 92 94 62 100 100 100 98 100 100 14 57 89 96 98 69 94 93 12 100 8 5 5 90 98 79 92 38 7 20
100 100 100 100 100 100 100 100 100 100 100 100 95 99 72 74 98 100 100 99 99 98 80 100 94 59 100 100 100 100 72 64 99 60 89 87 6 93 100 71 63 71 5 5 6
100 100 100 100 100 100 100 100 100 100 99 100 97 100 100 95 100 83 78 100 95 97 91 78 84 68 20 49 100 93 95 100 100 100 100 100 100 100 100 98 100 74 99 100 100
100 100 100 100 100 100 100 100 100 100 100 99 73 100 85 97 100 52 17 77 74 17 88 92 94 54 5 58 97 100 100 93 100 100 100 100 100 99 100 100 41 82 100 100 100
100 100 100 100 100 100 100 100 100 100 100 100 100 100 100 98 100 100 100 100 37 23 70 86 100 98 99 63 99 100 86 88 100 100 100 99 100 100 100 100 100 100 100 100 52
100 100 100 100 100 100 100 100 100 100 100 100 100 100 100 75 99 100 100 100 100 100 100 100 99 100 100 100 100 100 100 100 100 100 100 100 20 100 100 100 100 100 100 87 5
100 100 100 100 100 100 100 100 100 100 100 100 100 100 100 100 100 100 100 100 100 100 100 100 100 100 100 100 100 38 100 100 100 100 100 100 100 100 100 100 63 55 61 99 18

GFSSW_prec_cloud_030.txt.gz
Cloud_Cover
4 7 6 40 80 13 46 60 35 9 5 11 4 9 5 5 2 4 5 5 11 78 69 5 6 5 2 0 0 0 0 0 0 0 0 0 0 0 0 0 0 0 0 0 0
54 98 90 55 56 100 100 100 100 98 100 7 17 4 5 5 1 4 5 62 5 5 4 5 5 4 0 0 0 0 0 0 0 0 0 0 0 0 0 0 0 0 0 0 0
100 100 100 99 100 100 100 100 100 100 21 32 49 62 8 5 4 0 1 2 4 2 3 5 5 3 5 5 0 0 0 0 0 0 0 0 0 0 0 0 0 0 2 4 0
97 100 99 100 81 82 100 100 40 100 100 100 65 23 8 50 5 5 0 0 0 0 0 0 4 5 5 5 0 0 0 0 0 0 0 2 1 0 0 0 0 0 0 4 5
100 95 93 97 99 99 100 76 100 100 100 78 31 60 25 8 5 1 0 0 0 4 1 0 0 5 11 12 10 6 4 4 3 5 56 25 5 0 1 1 2 1 1 0 1
88 100 100 100 99 98 73 38 42 22 44 49 5 6 20 5 5 2 5 2 2 5 5 2 3 8 29 81 36 5 5 5 5 5 5 17 35 5 0 0 0 3 5 5 5
99 81 100 99 100 100 100 100 99 100 62 5 5 6 68 11 5 5 5 5 5 5 5 5 5 42 78 98 42 5 5 0 1 0 4 4 5 2 0 0 0 0 0 0 0
100 100 100 100 100 100 100 100 98 66 48 5 5 6 76 13 16 12 5 14 5 5 5 5 32 26 38 11 5 8 12 5 5 5 5 25 8 5 5 5 5 1 0 0 0
100 100 100 95 100 100 100 100 100 100 23 10 5 38 77 100 43 88 36 5 5 15 11 52 82 83 80 5 12 69 66 5 6 5 6 79 73 5 5 39 16 5 5 3 1
100 100 100 100 100 100 100 100 100 100 70 40 56 6 99 87 82 24 5 5 5 5 53 43 54 43 8 36 65 12 5 16 36 5 5 19 69 5 4 5 4 0 5 5 5
100 100 100 100 100 100 100 100 100 100 100 77 64 96 100 39 47 40 23 24 69 100 26 30 95 23 5 6 15 6 56 71 24 5 65 24 63 5 3 5 0 2 0 5 5
100 100 100 100 100 100 100 100 100 68 100 100 100 100 100 100 93 6 25 56 60 74 36 5 64 6 22 7 5 5 4 5 0 0 4 5 49 5 0 0 5 5 2 0 0
100 100 100 100 100 100 100 100 100 100 77 100 100 100 99 100 100 100 6 6 21 5 5 5 11 81 29 5 5 1 5 1 0 0 1 2 4 1 4 0 0 3 5 0 0
100 100 100 100 100 100 100 100 100 100 74 98 94 64 98 100 60 100 86 5 5 7 5 6 75 26 6 59 5 5 1 1 4 3 1 4 5 69 50 60 40 6 6 5 5
100 100 100 100 100 100 100 100 100 100 45 100 100 100 100 100 99 100 100 14 10 13 8 90 64 100 100 61 9 54 41 5 5 39 49 99 14 5 97 20 70 64 88 32 20
100 100 100 100 100 100 100 100 100 86 37 22 87 100 100 100 98 94 100 98 35 19 88 55 77 97 100 100 53 8 28 12 17 34 100 93 6 79 100 100 100 100 99 94 95
100 100 100 100 100 100 100 100 100 92 92 100 100 100 100 100 100 89 46 17 73 97 100 100 100 100 100 100 100 100 100 100 100 100 100 100 91 100 84 99 100 100 56 14 6
100 100 100 100 100 100 100 100 100 96 100 95 100 100 100 100 100 100 100 84 92 100 100 100 100 100 96 71 94 100 94 5 6 34 75 100 100 100 100 100 100 100 100 92 72
100 100 100 100 100 100 100 100 100 100 100 100 100 94 100 100 100 100 100 100 100 100 100 100 100 100 92 100 99 100 98 50 8 100 100 100 100 100 100 100 100 100 81 38 5
100 100 100 100 100 100 100 100 100 97 70 38 84 100 93 100 100 100 100 100 100 100 100 100 100 100 100 100 100 100 100 100 100 100 100 100 100 100 100 100 100 100 49 5 16
100 100 100 100 100 100 100 100 100 87 82 99 93 100 94 100 100 100 100 100 100 100 100 100 100 100 100 100 100 100 100 100 100 96 25 91 100 100 100 100 100 83 75 18 5
100 100 100 100 100 100 100 100 100 100 100 100 100 100 100 100 100 100 100 100 100 100 100 100 100 100 100 100 100 100 100 100 100 100 60 14 85 60 68 58 4 5 5 5 27
100 100 100 100 100 100 100 100 100 100 100 100 100 100 100 100 100 100 100 100 100 100 100 100 100 100 100 100 100 100 100 100 94 52 99 96 33 93 98 14 5 5 5 5 35
100 100 100 100 100 100 100 100 100 100 100 100 100 100 100 100 100 100 92 80 100 100 100 100 100 100 100 100 100 100 100 100 100 84 92 87 86 56 99 93 50 5 6 99 98
100 100 100 100 100 100 100 100 100 100 100 100 100 100 100 100 100 100 100 100 100 100 100 100 100 100 100 100 100 100 100 100 100 100 100 98 95 100 100 100 34 99 98 29 5
100 100 100 100 100 100 100 100 100 100 100 100 100 100 100 100 100 100 100 100 100 100 100 100 100 100 100 100 100 82 100 100 100 85 100 100 31 100 98 100 100 57 6 64 98
100 100 100 100 100 100 100 100 100 100 100 100 100 100 100 100 100 100 100 100 100 100 100 100 100 100 100 100 100 100 100 100 100 77 97 100 89 100 100 100 64 100 100 99 15

GFSSW_prec_cloud_033.txt.gz
Cloud_Cover
68 5 5 5 68 20 100 96 35 6 5 5 5 5 2 5 5 0 0 4 2 5 5 5 5 5 4 0 0 0 0 0 0 0 0 0 0 0 0 0 0 0 0 0 0
32 19 5 5 57 16 90 86 5 24 78 97 100 22 5 0 0 3 2 5 3 2 16 33 26 4 5 3 0 0 0 0 0 0 0 0 0 0 0 0 0 0 0 0 0
5 35 5 35 34 92 84 17 81 100 100 92 82 81 5 5 5 13 5 5 4 2 4 0 3 0 0 0 0 0 0 0 0 0 0 0 0 0 0 0 0 0 1 3 0
52 5 8 52 66 100 100 53 100 100 100 100 99 58 9 5 14 12 5 5 5 4 0 0 0 0 0 0 0 0 0 0 0 0 0 0 0 0 0 0 0 0 2 0 5
56 76 5 54 100 100 100 82 100 100 80 89 42 100 100 54 5 20 6 5 5 2 0 0 0 0 0 0 1 2 4 0 0 3 3 0 0 0 0 0 0 0 0 2 4
100 100 100 91 86 100 31 100 100 100 100 100 100 100 100 25 5 5 5 5 4 0 0 0 1 4 0 0 2 4 5 5 5 5 4 0 0 0 0 5 0 0 0 0 0
100 100 100 100 100 99 54 30 100 96 82 37 14 38 20 2 3 5 5 5 5 5 5 5 5 5 5 5 1 5 5 5 3 0 5 0 1 0 1 3 0 0 0 0 0
100 100 100 100 100 100 100 97 100 100 100 99 96 76 91 34 5 5 5 5 5 5 5 5 5 5 5 6 5 5 5 3 5 5 5 4 5 5 5 5 0 0 0 0 0
100 100 100 100 100 100 100 100 100 91 92 100 100 90 53 80 5 5 5 9 5 5 5 5 5 5 11 5 23 57 98 5 5 5 5 5 3 5 5 5 5 5 0 0 0
100 100 100 100 100 100 100 100 100 97 99 95 100 99 100 65 7 5 5 5 32 5 20 27 5 47 78 2 55 43 30 5 0 4 5 17 8 5 5 5 5 1 0 0 0
100 100 100 100 100 100 100 100 100 100 100 100 87 100 93 56 75 36 18 5 5 12 7 56 90 98 5 5 41 63 13 5 0 1 5 5 5 0 0 3 0 0 0 0 0
100 100 100 100 100 100 100 100 100 100 100 100 100 100 100 100 100 100 91 93 6 31 12 47 93 15 22 88 42 44 8 28 5 1 3 0 2 0 0 0 0 0 0 0 0
100 100 100 100 100 100 100 100 100 100 100 100 100 100 100 100 100 100 100 100 100 79 37 20 100 100 42 8 8 33 10 82 7 5 5 0 22 5 5 2 4 5 5 5 4
100 100 100 100 96 100 100 100 100 70 8 90 100 100 100 100 100 100 100 100 81 100 62 6 74 67 22 50 8 7 78 15 5 5 5 3 9 80 5 51 72 17 6 5 6
100 100 100 100 100 100 100 100 95 85 4 5 82 100 100 100 100 100 100 100 41 98 28 12 41 53 72 67 5 26 77 44 54 6 43 73 4 56 98 100 100 100 100 100 99
100 100 100 100 100 100 100 100 100 100 50 11 100 100 100 100 100 100 100 99 71 30 51 93 64 87 98 99 24 53 78 19 69 100 83 100 8 33 100 100 100 100 100 100 100
100 100 100 100 100 100 100 100 100 68 18 100 92 100 100 100 100 100 91 40 60 76 96 98 100 91 72 100 90 87 51 68 100 100 100 100 74 99 100 100 100 100 100 100 100
100 100 100 100 100 100 100 100 100 29 5 38 100 100 100 100 100 100 100 95 100 91 100 100 98 55 100 100 100 98 100 100 100 100 9 62 98 100 97 100 100 100 100 100 100
100 100 100 100 100 100 100 100 97 11 94 92 100 100 100 78 100 100 100 100 100 100 100 100 100 92 100 100 100 100 100 100 100 100 37 100 100 100 100 100 100 100 100 100 100
100 100 100 100 100 100 100 100 100 89 100 100 100 100 100 45 47 100 100 100 100 100 100 100 100 100 100 100 100 100 100 100 100 100 86 80 99 90 100 100 100 100 100 100 100
100 100 100 100 100 100 100 100 100 100 100 100 100 99 100 53 74 42 26 79 100 100 100 100 100 100 100 100 100 100 100 100 100 79 100 100 100 100 100 100 100 100 100 100 100
100 100 100 100 100 100 100 100 100 100 100 100 100 96 95 100 100 89 26 100 100 100 100 100 100 100 100 100 100 100 100 100 100 100 100 100 100 100 100 100 100 100 88 100 100
100 100 100 100 100 100 100 100 100 98 100 100 97 100 100 100 100 99 100 100 100 100 100 100 100 100 100 100 100 100 100 100 100 100 100 100 100 100 100 100 100 100 100 100 100
100 100 100 100 100 100 100 100 100 100 100 100 96 100 100 100 99 100 100 98 100 100 100 100 100 100 100 100 100 100 100 100 100 100 100 100 100 100 100 100 100 100 100 100 100
100 100 100 100 100 100 100 100 100 100 100 100 100 100 100 100 100 100 100 100 100 100 100 100 100 100 97 80 28 42 68 98 100 100 100 100 100 100 100 100 100 100 100 100 100
100 100 100 100 100 100 100 100 100 100 100 100 100 100 100 100 100 100 100 100 100 100 100 100 100 100 100 100 90 67 80 100 100 100 100 100 100 100 100 100 100 100 100 100 55
100 100 100 100 100 100 100 100 100 100 100 100 100 100 100 100 100 100 100 100 100 100 100 100 100 100 100 100 100 99 100 100 99 100 100 100 100 100 100 100 72 74 40 88 96